Home > Weather > Fremont > Past weeks

Flag for U.S.A. Weather for the Past 2 Weeks in Fremont, California, U.S.A.

Now
66 °F

Clear.


Feels Like: 66 °F
Forecast: 49 / 74 °F
Wind: No wind

Location: Moffett Field

Current Time: Feb 8, 2016 at 8:13:28 PM

Latest Report: Feb 8, 2016 at 6:56 PM


Visibility: 10 mi

Pressure: 30.17 "Hg

Humidity: 49%

Dew point: 46 °F

Location of FremontLocation

Historic Weather in Fremont — Graph

°F

Fremont Temperature Yesterday

Maximum temperature yesterday: 72 °F (at 3:56 PM)
Minimum temperature yesterday: 46 °F (at 5:56 AM)
Average temperature yesterday: 60 °F

High & Low Weather Summary for the Past Weeks

 TemperatureHumidityPressure
High74 °F (Feb 8, 2:56 PM)96% (Jan 29, 11:56 PM)30.48 "Hg (Jan 29, 11:56 PM)
Low40 °F (Feb 3, 3:56 AM)31% (Feb 7, 3:56 PM)29.78 "Hg (Jan 31, 1:56 PM)
Average54 °F70%30.25 "Hg
* Reported Jan 24 6:56 PM — Feb 8 6:56 PM, Fremont, Weather by CustomWeather, © 2016

Note: Actual official high and low records may vary slightly from our data, if they occured in-between our weather recording intervals... More about our weather records

Advertising

Fremont Weather History for the Previous 24 Hours

 ConditionsComfort  
Time TempWeatherWind HumidityBarometerVisibility
6:56 PM
Mon, Feb 8
66 °FClear.No wind49%30.17 "Hg10 mi
5:56 PM69 °FClear.3 mph44%30.17 "Hg10 mi
4:56 PM71 °FSunny.7 mph41%30.17 "Hg10 mi
3:56 PM74 °FSunny.10 mph33%30.17 "Hg10 mi
2:56 PM74 °FSunny.8 mph38%30.16 "Hg10 mi
1:56 PM73 °FSunny.5 mph40%30.18 "Hg10 mi
12:56 PM72 °FSunny.3 mph43%30.20 "Hg10 mi
11:56 AM70 °FSunny.3 mph44%30.24 "Hg10 mi
10:56 AM65 °FSunny.No wind52%30.27 "Hg10 mi
9:56 AM62 °FSunny.3 mph60%30.27 "Hg10 mi
8:56 AM57 °FSunny.No wind72%30.27 "Hg10 mi
7:56 AM53 °FSunny.No wind77%30.26 "Hg10 mi
6:56 AM49 °FClear.No wind84%30.24 "Hg10 mi
5:56 AM51 °FClear.3 mph80%30.24 "Hg10 mi
4:56 AM53 °FClear.3 mph77%30.22 "Hg10 mi
3:56 AM51 °FClear.5 mph77%30.22 "Hg10 mi
2:56 AM51 °FClear.3 mph77%30.21 "Hg10 mi
1:56 AM52 °FClear.No wind75%30.21 "Hg10 mi
12:56 AM53 °FClear.No wind74%30.20 "Hg10 mi
11:56 PM
Sun, Feb 7
55 °FClear.3 mph72%30.21 "Hg10 mi
10:56 PM59 °FClear.3 mph64%30.22 "Hg10 mi
9:56 PM59 °FClear.No wind64%30.21 "Hg10 mi
8:56 PM65 °FClear.7 mph44%30.20 "Hg10 mi
Weather by CustomWeather, © 2016

See weather overviewHow to use our weather pages